Weather History for Tucumcari, NM

Change the Weather History Date:

Sunday, September 1, 2013

  Actual Average Record
Temperature  
Mean Temperature 81 °F -  
Max Temperature 91 °F 88 °F 100 °F (1939)
Min Temperature 71 °F 60 °F 49 °F (1956)
Cooling Degree Days 16    
Growing Degree Days 31 (Base 50)    
Moisture  
Dew Point 55 °F    
Average Humidity 43    
Maximum Humidity 66    
Minimum Humidity 26    
Precipitation  
Precipitation 0.01 in - - ()
Sea Level Pressure  
Sea Level Pressure 29.92 in    
Wind  
Wind Speed 6 mph (NE)    
Max Wind Speed 16 mph    
Max Gust Speed 18 mph    
Visibility 10 miles    
Events Rain , Thunderstorm    
Averages and records for this station are not official NWS values.
T = Trace of Precipitation, MM = Missing Value Source: NWS Daily Summary

Daily Weather History Graph

Daily Weather History Graph

Search for Another Location

Airport:

Trip Planner

Search our weather history database for the weather conditions in past years. The results will help you decide how hot, cold, wet, or windy it might be!

Date:

Astronomy

Sep. 01, 2013 Rise Set
Actual Time 6:27 AM MDT 7:20 PM MDT
Civil Twilight 6:01 AM MDT 7:46 PM MDT
Nautical Twilight 5:30 AM MDT 8:17 PM MDT
Astronomical Twilight 4:58 AM MDT 8:48 PM MDT
Moon 2:56 AM MDT (9/1) 4:55 PM MDT (9/1)
Length of Visible Light 13h 45m
Length of Day
12h 53m
Waning Crescent, 13% of the Moon is Illuminated
Sep 1
Waning Crescent
Sep 5
New
Sep 12
First Quarter
Sep 19
Full
Sep 26
Last Quarter

Hourly Weather History & Observations

Time (MDT) Temp. Heat Index Dew Point Humidity Pressure Visibility Wind Dir Wind Speed Gust Speed Precip Events Conditions
12:53 AM 75.0 °F - 52.0 °F 44% 29.80 in 10.0 mi South 6.9 mph - N/A   Clear
1:53 AM 75.0 °F - 52.0 °F 44% 29.81 in 10.0 mi Calm Calm - N/A   Clear
2:53 AM 77.0 °F - 54.0 °F 45% 29.82 in 10.0 mi NE 4.6 mph - N/A   Scattered Clouds
3:53 AM 75.0 °F - 54.0 °F 48% 29.83 in 10.0 mi Calm Calm - N/A   Mostly Cloudy
4:53 AM 72.0 °F - 53.1 °F 51% 29.83 in 10.0 mi NE 5.8 mph - N/A   Clear
5:53 AM 72.0 °F - 52.0 °F 49% 29.85 in 10.0 mi Calm Calm - N/A   Clear
6:53 AM 71.1 °F - 52.0 °F 51% 29.88 in 10.0 mi Calm Calm - N/A   Clear
7:53 AM 73.9 °F - 54.0 °F 50% 29.88 in 10.0 mi SE 3.5 mph - N/A   Clear
8:53 AM 78.1 °F - 55.9 °F 46% 29.90 in 10.0 mi East 3.5 mph - N/A   Clear
9:53 AM 82.9 °F 82.0 °F 55.0 °F 38% 29.91 in 10.0 mi Variable 6.9 mph - N/A   Partly Cloudy
10:53 AM 84.9 °F 83.6 °F 55.0 °F 36% 29.91 in 10.0 mi ENE 4.6 mph - N/A   Partly Cloudy
11:53 AM 86.0 °F 84.2 °F 54.0 °F 33% 29.91 in 10.0 mi Variable 4.6 mph - N/A   Mostly Cloudy
12:53 PM 87.1 °F 85.9 °F 57.0 °F 36% 29.91 in 10.0 mi NNE 11.5 mph - 0.00 in Rain Light Rain
1:53 PM 87.1 °F 85.1 °F 54.0 °F 32% 29.89 in 10.0 mi ENE 9.2 mph - 0.00 in   Scattered Clouds
2:53 PM 88.0 °F 85.7 °F 53.1 °F 30% 29.87 in 10.0 mi ENE 10.4 mph - N/A   Partly Cloudy
3:53 PM 89.1 °F - 51.1 °F 27% 29.86 in 10.0 mi East 9.2 mph - N/A   Partly Cloudy
4:53 PM 91.0 °F - 52.0 °F 26% 29.84 in 10.0 mi ENE 12.7 mph 18.4 mph N/A   Partly Cloudy
5:53 PM 88.0 °F 85.7 °F 53.1 °F 30% 29.85 in 10.0 mi ENE 11.5 mph - N/A   Clear
6:53 PM 87.1 °F 84.9 °F 53.1 °F 31% 29.88 in 10.0 mi East 10.4 mph - N/A   Mostly Cloudy
7:53 PM 84.9 °F 83.3 °F 54.0 °F 34% 29.90 in 10.0 mi East 8.1 mph - N/A   Mostly Cloudy
8:53 PM 84.0 °F 83.0 °F 55.9 °F 38% 29.92 in 10.0 mi NE 11.5 mph - N/A   Overcast
9:49 PM 75.2 °F - 60.8 °F 61% 30.15 in 8.0 mi North 12.7 mph - 0.01 in Rain , Thunderstorm Heavy Thunderstorms and Rain
9:53 PM 75.9 °F - 59.0 °F 56% 29.95 in 8.0 mi NNE 15.0 mph - 0.01 in Rain , Thunderstorm Light Thunderstorms and Rain
10:04 PM 77.0 °F - 57.2 °F 50% 30.15 in 10.0 mi North 16.1 mph - 0.00 in   Mostly Cloudy
10:12 PM 77.0 °F - 57.2 °F 50% 30.16 in 10.0 mi North 16.1 mph - 0.00 in Thunderstorm Scattered Clouds
10:53 PM 77.0 °F - 55.9 °F 48% 29.97 in 10.0 mi North 11.5 mph - 0.00 in Thunderstorm Overcast
11:26 PM 75.2 °F - 57.2 °F 53% 30.19 in 10.0 mi WSW 6.9 mph - N/A   Overcast
11:53 PM 73.0 °F - 61.0 °F 66% 29.99 in 10.0 mi SW 8.1 mph - N/A   Mostly Cloudy